Location: Tyumen
(57.1527°N, 65.5323°E)
Time: 01:21:47
(UTC+05:00)

ISS - Pass Details

Date: 02 November 2024
Orbit: 406 x 419 km, 51.6° (Epoch: 08 November)

Event Time Altitude Azimuth Distance (km) Brightness Sun altitude
Exits shadow 05:25:59 15° 178° (S) 1,213 -1.5 -19.9°
Drops below altitude 10° 05:27:03 10° 161° (SSE) 1,466 -0.8 -19.8°
Sets 05:29:34 0° 141° (SE) 2,323 0.5 -19.4°
